User: anonymous   Login
Location: Tierra del Sol
(32.6128°N, 116.3319°W)
Time: 01:32:36
(UTC-07:00)
Language:

Tiangong 2 - Orbit

View from above orbital plane
View from above orbital plane
View from above satellite
View from above satellite

Ground track
Ground track

The orbit data is extracted from the following two-line orbital elements,

1 41765U 16057A   17293.82650463  .00005123  00000-0  68089-4 0  9994
2 41765  42.7844 328.4933 0002650  10.9949 337.6911 15.59241224 62587
Epoch (UTC): 20 October 2017 19:50:10
Eccentricity: 0.0002650
inclination: 42.7844°
perigee height: 388 km
apogee height: 391 km
right ascension of ascending node: 328.4933°
argument of perigee: 10.9949°
revolutions per day: 15.59241224
mean anomaly at epoch: 337.6911°
orbit number at epoch: 6258

The dashed part of the orbit path shows where the satellite is in the earth's shadow,  

DLR